Huntsville Madison, AL

1:05 AM CDT on July 26, 2017 (GMT -0500)
Huntsville Madison

Weather History for KMDQ - January, 2004

Change the Weather History Date:

Thursday, January 1, 2004

  Actual Average (KHSV) Record (KHSV)
Temperature  
Mean Temperature 44 °F -  
Max Temperature 57 °F 48 °F 79 °F (1952)
Min Temperature 30 °F 30 °F 7 °F (1977)
Degree Days  
Heating Degree Days 22    
Moisture  
Dew Point 34 °F    
Average Humidity 75    
Maximum Humidity 100    
Minimum Humidity 44    
Precipitation  
Precipitation 0.00 in - - ()
Sea Level Pressure  
Sea Level Pressure 30.36 in    
Wind  
Wind Speed 1 mph (SSE)    
Max Wind Speed 7 mph    
Max Gust Speed -    
Visibility 10 miles    
Events Thunderstorm    
Averages and records for this station are not official NWS values.
T = Trace of Precipitation, MM = Missing Value Source: NWS Daily Summary

Daily Weather History Graph

Daily Weather History Graph

Search for Another Location

Airport or City:

Trip Planner

Search our weather history database for the weather conditions in past years. The results will help you decide how hot, cold, wet, or windy it might be!

Date:

Astronomy

Jan. 01, 2004 Rise Set
Actual Time 6:53 AM CST 4:45 PM CST
Civil Twilight 6:25 AM CST 5:13 PM CST
Nautical Twilight 5:54 AM CST 5:45 PM CST
Astronomical Twilight 5:23 AM CST 6:15 PM CST
Moon 12:47 PM CST (1/1) 1:33 AM CST (1/1)
Length of Visible Light 10h 47m
Length of Day
9h 51m
Waxing Gibbous, 72% of the Moon is Illuminated
Jan 1
Waxing Gibbous
Jan 7
Full
Jan 14
Last Quarter
Jan 21
New
Jan 29
First Quarter

Hourly Weather History & Observations

Time (CST) Temp. Windchill Dew Point Humidity Pressure Visibility Wind Dir Wind Speed Gust Speed Precip Events Conditions
12:00 AM 30.2 °F - 30.2 °F 100% 30.37 in 7.0 mi Calm Calm - N/A   Clear
12:20 AM 30.2 °F - 30.2 °F 100% 30.36 in 7.0 mi Calm Calm - N/A   Clear
12:40 AM 32.0 °F - 32.0 °F 100% 30.37 in 7.0 mi Calm Calm - N/A   Clear
1:00 AM 30.2 °F - 30.2 °F 100% 30.37 in 7.0 mi Calm Calm - N/A   Clear
1:20 AM 30.2 °F - 30.2 °F 100% 30.37 in 5.0 mi Calm Calm - N/A   Clear
1:40 AM 32.0 °F - 32.0 °F 100% 30.37 in 10.0 mi Calm Calm - N/A   Clear
2:00 AM 30.2 °F - 30.2 °F 100% 30.37 in 10.0 mi Calm Calm - N/A   Clear
2:20 AM 32.0 °F - 32.0 °F 100% 30.37 in 10.0 mi Calm Calm - N/A   Clear
2:40 AM 32.0 °F - 32.0 °F 100% 30.37 in 10.0 mi Calm Calm - N/A   Clear
3:00 AM 30.2 °F - 30.2 °F 100% 30.38 in 10.0 mi Calm Calm - N/A   Clear
3:20 AM 30.2 °F - 30.2 °F 100% 30.37 in 10.0 mi Calm Calm - N/A   Clear
3:40 AM 30.2 °F - 30.2 °F 100% 30.37 in 10.0 mi Calm Calm - N/A   Clear
4:00 AM 32.0 °F - 32.0 °F 100% 30.37 in 10.0 mi Calm Calm - N/A   Clear
4:20 AM 32.0 °F - 32.0 °F 100% 30.37 in 10.0 mi Calm Calm - N/A   Clear
4:40 AM 30.2 °F - 30.2 °F 100% 30.37 in 10.0 mi Calm Calm - N/A   Clear
5:00 AM 30.2 °F - 30.2 °F 100% 30.37 in 10.0 mi Calm Calm - N/A   Clear
5:20 AM 30.2 °F - 30.2 °F 100% 30.37 in 10.0 mi Calm Calm - N/A   Clear
5:40 AM 32.0 °F - 32.0 °F 100% 30.37 in 10.0 mi Calm Calm - N/A   Clear
6:00 AM 32.0 °F - 32.0 °F 100% 30.37 in 10.0 mi Calm Calm - N/A   Clear
6:20 AM 32.0 °F - 32.0 °F 100% 30.37 in 10.0 mi Calm Calm - N/A   Clear
6:40 AM 32.0 °F - 32.0 °F 100% 30.38 in 10.0 mi Calm Calm - N/A   Clear
7:00 AM 32.0 °F - 32.0 °F 100% 30.39 in 10.0 mi Calm Calm - N/A   Clear
7:20 AM 30.2 °F - 30.2 °F 100% 30.39 in 10.0 mi Calm Calm - N/A   Clear
7:40 AM 32.0 °F - 32.0 °F 100% 30.41 in 10.0 mi Calm Calm - N/A   Clear
8:00 AM 32.0 °F - 32.0 °F 100% 30.40 in 10.0 mi Calm Calm - N/A   Clear
8:20 AM 35.6 °F - 33.8 °F 93% 30.41 in 10.0 mi Calm Calm - N/A   Clear
8:40 AM 39.2 °F - 33.8 °F 81% 30.43 in 10.0 mi Calm Calm - N/A   Clear
9:00 AM 41.0 °F - 33.8 °F 76% 30.44 in 10.0 mi Calm Calm - N/A   Clear
9:20 AM 44.6 °F 43.1 °F 35.6 °F 71% 30.44 in 7.0 mi SE 3.5 mph - N/A   Clear
9:40 AM 46.4 °F - 35.6 °F 66% 30.44 in 10.0 mi Calm Calm - N/A   Clear
10:00 AM 50.0 °F - 35.6 °F 58% 30.44 in 10.0 mi SSE 5.8 mph - N/A   Scattered Clouds
10:20 AM 51.8 °F - 33.8 °F 50% 30.43 in 10.0 mi SSE 5.8 mph - N/A   Mostly Cloudy
10:40 AM 51.8 °F - 35.6 °F 54% 30.43 in 10.0 mi Calm Calm - N/A   Overcast
11:00 AM 51.8 °F - 33.8 °F 50% 30.41 in 10.0 mi SE 3.5 mph - N/A   Overcast
11:20 AM 51.8 °F - 35.6 °F 54% 30.39 in 10.0 mi ESE 4.6 mph - N/A   Overcast
11:40 AM 51.8 °F - 35.6 °F 54% 30.37 in 10.0 mi SE 3.5 mph - N/A   Overcast
12:00 PM 53.6 °F - 35.6 °F 51% 30.37 in 10.0 mi SE 3.5 mph - N/A Thunderstorm Thunderstorm
12:20 PM 53.6 °F - 35.6 °F 51% 30.36 in 10.0 mi SSE 4.6 mph - N/A   Scattered Clouds
12:40 PM 55.4 °F - 35.6 °F 47% 30.34 in 10.0 mi SE 4.6 mph - N/A   Scattered Clouds
1:00 PM 55.4 °F - 35.6 °F 47% 30.33 in 10.0 mi SE 4.6 mph - N/A   Mostly Cloudy
1:20 PM 57.2 °F - 35.6 °F 44% 30.32 in 10.0 mi SSE 4.6 mph - N/A   Mostly Cloudy
1:40 PM 55.4 °F - 35.6 °F 47% 30.32 in 10.0 mi SSE 5.8 mph - N/A   Overcast
2:00 PM 57.2 °F - 35.6 °F 44% 30.32 in 10.0 mi SE 4.6 mph - N/A   Mostly Cloudy
2:20 PM 57.2 °F - 35.6 °F 44% 30.30 in 10.0 mi SE 5.8 mph - N/A   Scattered Clouds
2:40 PM 55.4 °F - 35.6 °F 47% 30.30 in 10.0 mi SE 6.9 mph - N/A   Mostly Cloudy
3:00 PM 55.4 °F - 37.4 °F 51% 30.30 in 10.0 mi SE 3.5 mph - N/A   Overcast
3:20 PM 55.4 °F - 37.4 °F 51% 30.31 in 10.0 mi Calm Calm - N/A   Overcast
3:40 PM 57.2 °F - 37.4 °F 48% 30.31 in 10.0 mi SSE 4.6 mph - N/A   Overcast
4:00 PM 55.4 °F - 39.2 °F 54% 30.32 in 10.0 mi South 4.6 mph - N/A   Overcast
4:20 PM 55.4 °F - 41.0 °F 58% 30.30 in 10.0 mi SSE 4.6 mph - N/A   Overcast
4:40 PM 55.4 °F - 39.2 °F 54% 30.30 in 10.0 mi SSE 4.6 mph - N/A   Scattered Clouds
5:00 PM 55.4 °F - 39.2 °F 54% 30.29 in 10.0 mi SSE 4.6 mph - N/A   Clear
5:20 PM 55.4 °F - 39.2 °F 54% 30.28 in 10.0 mi SSE 4.6 mph - N/A   Clear
6:00 PM 55.4 °F - 37.4 °F 51% 30.29 in 10.0 mi SSE 4.6 mph - N/A   Clear
6:03 PM 55.4 °F - 39.2 °F 54% 30.29 in 10.0 mi SSE 4.6 mph - N/A   Clear
6:20 PM 51.8 °F - 41.0 °F 67% 30.29 in 10.0 mi South 3.5 mph - N/A   Clear
6:40 PM 51.8 °F - 39.2 °F 62% 30.29 in 10.0 mi Calm Calm - N/A   Mostly Cloudy
7:00 PM 50.0 °F - 41.0 °F 71% 30.28 in 10.0 mi SSE 3.5 mph - N/A   Mostly Cloudy
7:20 PM 53.6 °F - 37.4 °F 54% 30.28 in 10.0 mi SSE 4.6 mph - N/A   Scattered Clouds
7:40 PM 53.6 °F - 37.4 °F 54% 30.27 in 10.0 mi SSE 5.8 mph - N/A   Mostly Cloudy
8:00 PM 55.4 °F - 37.4 °F 51% 30.29 in 10.0 mi Calm Calm - N/A   Overcast
8:20 PM 50.0 °F - 41.0 °F 71% 30.29 in 10.0 mi Calm Calm - N/A   Overcast
8:40 PM 48.2 °F - 42.8 °F 82% 30.29 in 10.0 mi Calm Calm - N/A   Overcast
9:00 PM 50.0 °F - 42.8 °F 76% 30.30 in 10.0 mi Calm Calm - N/A   Overcast
9:20 PM 50.0 °F - 42.8 °F 76% 30.29 in 10.0 mi SSE 4.6 mph - N/A   Overcast
9:40 PM 51.8 °F - 41.0 °F 67% 30.29 in 10.0 mi South 4.6 mph - N/A   Overcast
10:00 PM 53.6 °F - 41.0 °F 62% 30.29 in 10.0 mi South 3.5 mph - N/A   Overcast
10:20 PM 51.8 °F - 42.8 °F 71% 30.29 in 10.0 mi Calm Calm - N/A   Overcast
10:40 PM 53.6 °F - 39.2 °F 58% 30.28 in 10.0 mi SSE 5.8 mph - N/A   Mostly Cloudy
11:00 PM 53.6 °F - 37.4 °F 54% 30.26 in 10.0 mi SSE 6.9 mph - N/A   Scattered Clouds
11:20 PM 53.6 °F - 35.6 °F 51% 30.26 in 10.0 mi SSE 6.9 mph - N/A   Scattered Clouds
11:40 PM 51.8 °F - 35.6 °F 54% 30.26 in 10.0 mi SSE 5.8 mph - N/A   Mostly Cloudy